Regional Weather Roundup
Issued by NWS

Home | Current Version | Previous Version | Graphics & Text | Print | Product List | Glossary On
Versions: 1 2 3 4 5 6 7 8 9 10 11 12 13 14 15 16 17 18 19 20 21 22 23 24 25 26 27 28 29 30 31 32 33 34 35 36 37 38 39 40 41 42 43 44 45 46 47 48 49 50
672
ASUS43 KMKX 081621
RWRWI

WISCONSIN REGIONAL WEATHER ROUNDUP
NATIONAL WEATHER SERVICE MILWAUKEE/SULLIVAN WI
1000 AM CST MON FEB 08 2016

NOTE: "FAIR" INDICATES FEW OR NO CLOUDS BELOW 12,000 FEET WITH NO
SIGNIFICANT WEATHER AND/OR OBSTRUCTIONS TO VISIBILITY.

WIZ001-002-006>008-014>016-023>028-081700-
NORTHWEST WISCONSIN

CITY           SKY/WX    TMP DP  RH WIND       PRES   REMARKS
SUPERIOR ARPT  FLURRIES  11   3  70 NW13G20   29.90R WCI  -4
ASHLAND        LGT SNOW  17  11  77 NW10      29.83R WCI   5
HAYWARD        LGT SNOW  13   6  74 NW7       29.81R WCI   3
SIREN          FLURRIES  12   3  69 N12G20    29.89R WCI  -2
CUMBERLAND     FLURRIES  10   3  72 NW16G22   29.83R WCI  -7
RICE LAKE      FLURRIES  13   5  71 NW9G18    29.85R WCI   0
CHETEK         FLURRIES  13   7  75 NW8       29.83R WCI   2
LADYSMITH      LGT SNOW  15  10  79 NW14G21   29.78S WCI   0
EAU CLAIRE     LGT SNOW  15   7  70 NW14G22   29.82R WCI   0
MENOMONIE      FLURRIES  15   6  67 NW18G24   29.85R WCI  -1
NEW RICHMOND   LGT SNOW  12   4  71 NW21G28   29.89R WCI  -7
OSCEOLA        CLOUDY    12   3  67 NW12G23   29.94R WCI  -2
$$

WIZ003>005-009-010-017-018-081700-
NORTH CENTRAL WISCONSIN

CITY           SKY/WX    TMP DP  RH WIND       PRES   REMARKS
MANITOWISH WTR LGT SNOW  17  15  90 N10G16    29.69R WCI   5
ARBOR VITAE    LGT SNOW  22  18  86 N15       29.68R WCI   8
WOODRUFF       LGT SNOW  22  18  86 N15       29.68R WCI   8
RHINELANDER    CLOUDY    20  14  77 N8G20     29.67R WCI  10
EAGLE RIVER    FLURRIES  19  13  75 N13G21    29.66R WCI   6
LAND O LAKES   LGT SNOW  19  14  80 N9        29.68R WCI   8
PHILLIPS       CLOUDY    18  15  88 N9        29.71R WCI   7
TOMAHAWK       CLOUDY    21  17  83 N7        29.68R WCI  13
MEDFORD        CLOUDY    18  14  84 NW12      29.68R WCI   6
MERRILL        CLOUDY    24  17  76 N14G20    29.67R WCI  11
$$

WIZ029-030-035-036-043>047-081700-
CENTRAL WISCONSIN

CITY           SKY/WX    TMP DP  RH WIND       PRES   REMARKS
WAUSAU         CLOUDY    26  19  74 NW14      29.64R WCI  14
MOSINEE        CLOUDY    25  21  86 N16       29.66R WCI  12
MARSHFIELD     CLOUDY    19  11  70 NW21      29.68R WCI   3
STEVENS POINT  CLOUDY    23  17  77 NW7       29.66S WCI  14
WAUPACA        CLOUDY    27  19  73 W9        29.66R WCI  17
WAUTOMA        CLOUDY    23  16  75 NW14G20   29.68R WCI  11
WISC RAPIDS    CLOUDY    22  14  71 NW14      29.70R WCI   9
CAMP DOUGLAS   FLURRIES  19  18  93 NW15G23   29.73R WCI   5
$$

WIZ011>013-019>022-031-037>040-048>050-081700-
NORTHEAST WISCONSIN

CITY           SKY/WX    TMP DP  RH WIND       PRES   REMARKS
ANTIGO         CLOUDY    23  18  83 N15       29.63R WCI  10
SHAWANO        CLOUDY    32  25  74 W3        29.64R
OCONTO         CLOUDY    33  33 100 NW6       29.61R WCI  27
STURGEON BAY   CLOUDY    34  28  80 N7        29.63R WCI  28
GREEN BAY      LGT SNOW  31  25  78 W10       29.63R WCI  22
MANITOWOC      MIX PCPN  32  28  85 W9        29.62R WCI  24
APPLETON       CLOUDY    27  19  74 W14       29.61R WCI  15
CLINTONVILLE   CLOUDY    30  21  69 NW9       29.64R WCI  22
OSHKOSH        CLOUDY    25  17  72 W15       29.64R WCI  13
$$

WIZ032>034-041-042-053>061-081700-
SOUTHWEST WISCONSIN

CITY           SKY/WX    TMP DP  RH WIND       PRES   REMARKS
LA CROSSE      FLURRIES  18  10  71 NW16      29.80S WCI   3
SPARTA         MOSUNNY   18  12  77 NW9G18    29.78R WCI   7
VIROQUA        CLOUDY    17  12  80 NW18G25   29.73R WCI   0
BOSCOBEL       CLOUDY    21  13  71 N13       29.78R WCI   9
PRAIRIE DU CHI MIX PCPN  20  11  68 NW14      29.79R WCI   7
PLATTEVILLE    PTSUNNY   20  14  79 NW14      29.73R WCI   6
$$

WIZ056-057-062-063-064-067-068-081700-
SOUTH CENTRAL WISCONSIN

CITY           SKY/WX    TMP DP  RH WIND       PRES   REMARKS
REEDSBURG      CLOUDY    20  13  76 NW10G16   29.71R WCI   8
BARABOO/DELLS  CLOUDY    20  13  75 NW10      29.70R WCI   9
LONE ROCK      CLOUDY    21  13  71 NW9       29.74R WCI  11
MINERAL POINT  FLURRIES  21  16  79 NW15G23   29.70R WCI   8
MADISON        FLURRIES  21  14  74 NW13      29.69R WCI   9
MIDDLETON      CLOUDY    22  16  75 NW14      29.70R WCI  10
WATERTOWN      CLOUDY    24  20  85 NW10      29.66R WCI  13
MONROE         LGT SNOW  23  18  80 NW10G17   29.68R WCI  12
JANESVILLE     CLOUDY    25  19  80 NW14      29.67R WCI  13
$$

WIZ051-052-058>065-066-070>072-081700-
SOUTHEAST WISCONSIN

CITY           SKY/WX    TMP DP  RH WIND       PRES   REMARKS
MILWAUKEE      LGT SNOW  29  23  78 NW13      29.64R WCI  19
WAUKESHA       LGT SNOW  25  23  93 W14       29.66R FOG     WCI  13
MILWAUKEE/TIMM LGT SNOW  27  21  80 NW10      29.65R WCI  17
RACINE         FLURRIES  30  23  75 NW10      29.65R WCI  21
BURLINGTON     CLOUDY    27  23  85 NW10      29.65R WCI  17
KENOSHA        CLOUDY    30  25  81 NW10      29.64R WCI  21
FOND DU LAC    CLOUDY    25  19  78 NW13      29.65  WCI  14
SHEBOYGAN      CLOUDY    28  22  78 MISG      29.62R
WEST BEND      CLOUDY    28  21  74 W13       29.63R WCI  18
JUNEAU         LGT SNOW  23  18  83 NW9G16    29.67R WCI  13
$$

LSZ147-162-081700-
LAKE SUPERIOR

STATION/POSITION TIME  TEMP    WIND        PRES    WAVE
                       AIR SEA DIR/SP/G            HT/PER
                 (UTC) (F)     (DEG/KT/KT) (MB)    (FT/S)
DEVILS ISLAND    1600   16     350/ 17/ 20 1011.5R
PORT WING        1500   17     320/ 18/ 20 1010.8R
SAXON HARBOR     1540   19                 1009.1R
$$

LMZ867-665-643>646-081700-
LAKE MICHIGAN

STATION/POSITION TIME  TEMP    WIND        PRES    WAVE
                       AIR SEA DIR/SP/G            HT/PER
                 (UTC) (F)     (DEG/KT/KT) (MB)    (FT/S)
CHAMBERS ISLAND  1500   33     320/  7/  7 1002.7R
NORTHPORT PIER   1500   33     340/  8/  9 1002.4R
ALGOMA LAKESHORE 1511          330/  7/  9   N/A
KEWAUNEE LAKESHO 1600   33     290/  7/ 11 1002.0R
SHEBOYGAN LAKESH 1600   29     300/ 15/ 18 1004.1R
PORT WASHINGTON  1500   30     300/  9/ 14 1003.7R
MILWAUKEE LAKESH 1610   29     290/  9/ 11   N/A
KENOSHA   LAKESH 1600   30     290/ 11/ 15 1004.1R
$$

TC  - TEMPERATURE IN CELSIUS
VSB - VISIBILITY IN STATUTE MILES
WCI - WIND CHILL INDEX
HX  - HEAT INDEX





USA.gov is the U.S. government's official web portal to all federal, state and local government web resources and services.